Hourly Data Report for September 07, 2017

All times are specified in Local Standard Time (LST). Add 1 hour to adjust for Daylight Saving Time where and when it is observed.

BAS CARAQUET
NEW BRUNSWICK

47°48'08.000" N
64°50'00.000" W
5.00 m
8100467
71598
WXS

Download Data

Hourly Data (September 2017)
Hourly Data Report for September 7, 2017
Temp Definition
°C
Dew Point Temp Definition
°C
Rel Hum Definition
%
Wind Dir Definition
10's deg

Wind Spd Definition
km/h
Visibility Definition
km
Stn Press Definition
kPa
Hmdx Definition


Wind Chill Definition


Weather Definition


TIME
00:00 15.4 15.3 100 34 4   101.37     LegendNANA
01:00 15.5 15.4 100 4 4   101.36     LegendNANA
02:00 15.6 15.6 100 6 4   101.33     LegendNANA
03:00 15.9 15.9 100 6 3   101.27     LegendNANA
04:00 16.1 16.1 100 6 5   101.21     LegendNANA
05:00 17.6 17.5 100 15 9   101.13     LegendNANA
06:00 18.0 17.9 100 14 12   101.03     LegendNANA
07:00 18.5 18.5 100 15 15   100.99     LegendNANA
08:00 19.1 19.0 100 17 16   100.86     LegendNANA
09:00 19.6 19.5 100 16 14   100.72     LegendNANA
10:00 20.2 20.1 100 15 17   100.64 28   LegendNANA
11:00 19.8 19.7 99 17 17   100.57     LegendNANA
12:00 20.1 19.8 98 17 19   100.46 28   LegendNANA
13:00 20.5 20.0 97 17 23   100.35 28   LegendNANA
14:00 20.0 19.7 98 17 19   100.32 27   LegendNANA
15:00 19.4 19.0 98 17 19   100.21     LegendNANA
16:00 19.5 19.2 98 16 19   100.15     LegendNANA
17:00 20.3 19.2 93 17 12   100.16 27   LegendNANA
18:00 21.1 19.0 88 18 13   100.15 28   LegendNANA
19:00 20.7 18.6 88 19 15   100.18 27   LegendNANA
20:00 19.9 17.7 87 21 13   100.28     LegendNANA
21:00 18.7 14.5 77 23 14   100.39     LegendNANA
22:00 17.4 14.1 81 21 10   100.46     LegendNANA
23:00 16.6 13.9 84 21 11   100.50     LegendNANA

Notes on Data Quality.

Legend

  • E = Estimated
  • M = Missing
  • NA = Not Available
  • ‡ = Partner data that is not subject to review by the National Climate Archives
Date modified: